Regional Weather Roundup
Issued by NWS

Home | Current Version | Previous Version | Graphics & Text | Print | Product List | Glossary Off
Versions: 1 2 3 4 5 6 7 8 9 10 11 12 13 14 15 16 17 18 19 20 21 22 23 24 25 26 27 28 29 30 31 32 33 34 35 36 37 38 39 40 41 42 43 44 45 46 47 48 49 50

000
ASUS43 KLSX 310110
RWRMO

WEATHER SUMMARY FOR MISSOURI
NATIONAL WEATHER SERVICE SPRINGFIELD MO
800 PM CDT MON MAY 30 2016

NOTE: "FAIR" INDICATES FEW OR NO CLOUDS BELOW 12,000 FEET WITH NO
       SIGNIFICANT WEATHER AND/OR OBSTRUCTIONS TO VISIBILITY.
       CURRENT SKY AND/OR WEATHER CONDITIONS ARE NOT AVAILABLE FOR
       CHILLICOTHE AND FARMINGTON.

MOZ001>031-035>038-043-044-053-054-310200-
...NORTHERN AND WESTERN MISSOURI...

CITY           SKY/WX    TMP DP  RH WIND       PRES   REMARKS
KANSAS CTY INT PTCLDY    73  59  61 S13       29.95S
KANSAS C DTWN  PTCLDY    75  57  53 S9G20     29.94F
LEE`S SUMMIT   MOCLDY    71  58  63 S8        29.97F
ST JOSEPH      LGT RAIN  76  64  66 S14       29.95R
CHILLICOTHE      N/A     71  63  75 SW5       29.96F
KIRKSVILLE     CLOUDY    70  62  76 SW7       29.99R

$$
MOZ066>068-077>081-088>096-101>105-310200-
...SOUTHWEST MISSOURI...

CITY           SKY/WX    TMP DP  RH WIND       PRES   REMARKS
SPRINGFIELD    LGT RAIN  67  63  87 E6        30.02F
JOPLIN         CLOUDY    68  66  93 SE8       29.99F
BRANSON        MOCLDY    66  64  94 CALM      30.02F

$$
MOZ032>034-039>042-045>050-055>058-069>072-310200-
...CENTRAL MISSOURI...

CITY           SKY/WX    TMP DP  RH WIND       PRES   REMARKS
COLUMBIA       CLOUDY    69  61  75 SW7       30.00F
JEFFERSON CITY CLOUDY    70  61  73 SE7       30.01S
ROLLA          CLOUDY    65  63  93 S5        30.02S
SEDALIA        CLOUDY    67  62  84 S13       29.98F
WHITEMAN AFB   CLOUDY    66  65  94 SW8       29.95F
WARRENSBURG    CLOUDY    68  61  77 S6        29.97S

$$
MOZ051-052-059>065-310200-
...EAST CENTRAL MISSOURI...

CITY           SKY/WX    TMP DP  RH WIND       PRES   REMARKS
ST LOUIS INTL  CLOUDY    79  57  46 NE9       29.99S
SPIRIT OF STL  CLOUDY    70  65  84 NE7       29.98R
ST CHARLES     CLOUDY    76  59  55 E12       29.98S

$$
MOZ072>076-082>087-097>100-106>115-310200-
...SOUTH CENTRAL AND SOUTHEAST MISSOURI...

CITY           SKY/WX    TMP DP  RH WIND       PRES   REMARKS
CAPE GIRARDEAU PTCLDY    77  69  76 CALM      29.97F
FARMINGTON     MOCLDY    76  66  71 CALM      30.01F
POPLAR BLUFF   CLOUDY    78  70  76 CALM      29.97F
WEST PLAINS    CLOUDY    66  62  87 CALM      30.05F

$$




USA.gov is the U.S. government's official web portal to all federal, state and local government web resources and services.